Weather in Sovdozero

Russia / Republic of Karelia     62°48′24″N   33°07′10″E
temp.,
°C
wind,
m/s
gust,
m/s
humid.,
%
clouds,
%
prec.,
mm/h
press.,
hPa
HPBL,
m
31 july, sat
sat3100:00+12ssw288622 0.0 996162
03:00+11sse269369 0.0 996142
06:00+13s268733 0.0 995162
09:00+18s2463100 0.0 994664
12:00+19s335756 0.1 9931256
15:00+21ssw12517 0.8 9941386
18:00+19w336945 0.9 995821
21:00+15wsw22910 1.8 99721
1 august, sun
sun100:00+13wsw24957 0.0 99869
03:00+12sw24960 0.0 99989
06:00+13sw269475 0.0 1000164
09:00+18ssw356950 0.0 1000440
12:00+22ssw454597 0.0 9992085
15:00+18ssw5781100 0.9 999690
18:00+18sw378288 2.6 999693
21:00+15s119483 3.8 99820
2 august, mon
mon200:00+13ssw26966 0.0 999136
03:00+12ssw25977 0.0 100098
06:00+13ssw399965 0.0 1001306
09:00+14sw4893100 0.1 1001634
12:00+16sw4890100 0.1 1002710
15:00+18sw3666100 0.1 10021222
18:00+20ssw3757100 0.0 1001579
21:00+16wsw1176100 0.0 100112
3 august, tue
tue300:00+14nw0080100 0.0 100010
03:00+13e1195100 1.3 99915
06:00+13n2698100 4.9 997230
09:00+15nnw2589100 5.7 997393
12:00+16nnw2482100 0.3 998287
15:00+16wnw127838 0.7 999404
18:00+17w34816 1.3 1000681
21:00+13wnw499526 3.5 1001447
4 august, wed
wed400:00+10wnw399852 0.1 1004352
03:00+10wnw4895100 0.1 1006541
06:00+9wnw3793100 0.1 1008658
09:00+10nw4783100 0.1 1010742
12:00+11nw466799 0.1 10131117
15:00+14nnw465452 0.1 10141395
18:00+14n34525 0.0 1015956
21:00+9e237846 0.0 101745